www.pogodaiklimat.ru

Погода и климат >> Архив погоды >> Франция >> Салон-де-Прованс


ПОГОДА в Салон-де-Провансе

  • Прогноз погоды в Салон-де-Провансе
  • Монитор погоды в Салон-де-Провансе

АРХИВ ПОГОДЫ в Салон-де-Провансе

Время (UTC), дата Ветер
(напр.,м/с)
 
Видим.   Явления Облачность Т
(С)
Тd
(С)
f
(%)
Тe
(С)
Тes
(С)
Комфортность P
(гПа)
Po
(гПа)
Тmin
(С)
Tmax
(С)
R
(мм)
R24
(мм)
S
(см)
13 16.07 ЮЗ 3-6
{6}
20 км н/о +28.8 +12.2 36 +30 +30 жарко 1014.4 1007.7
14 16.07 Ю 2-4
{5}
20 км н/о +28.4 +13.9 41 +30 +30 жарко 1014.4 1007.7
15 16.07 Ю 2-3
{4}
20 км н/о +29.1 +13.3 38 +31 +31 жарко 1014.0 1007.3
16 16.07 ЮЗ 3-4
{4}
20 км н/о +28.6 +13.3 39 +30 +30 жарко 1013.8 1007.1
17 16.07 ЮЗ 3-4
{4}
20 км н/о +26.2 +14.0 47 +28 +28 жарко 1014.0 1007.2
18 16.07 ЮЗ 2-3
{3}
20 км н/о +25.7 +13.9 48 +28 +28 жарко 1014.0 1007.2 +20.0 +29.7
19 16.07 ЮЗ 1-2
{3}
20 км н/о +24.0 +14.4 55 +27 +27 жарко 1014.1 1007.3
20 16.07 Ю 1-1
{2}
20 км н/о +22.4 +15.7 66 +26 +26 жарко 1014.6 1007.8
21 16.07 ЮЗ 1-1
{1}
20 км н/о +20.3 +15.3 73 +24 +24 комфорт 1014.9 1008.0
22 16.07 СВ 1-2
{2}
20 км н/о +18.0 +14.3 79 +19 +19 1015.1 1008.1
23 16.07 В 1-2
{2}
20 км н/о +17.7 +14.0 79 +19 +19 1014.9 1007.9
00 17.07 СВ 1-1
{2}
20 км н/о +17.0 +13.9 82 +18 +18 1014.6 1007.6
01 17.07 СВ 1-2
{2}
20 км н/о +16.3 +13.6 84 +17 +17 1014.0 1007.0
02 17.07 СВ 1-1
{2}
20 км н/о +16.3 +13.6 84 +17 +17 1013.6 1006.6
03 17.07 СВ 1-1
{2}
20 км н/о +16.0 +13.5 85 +17 +17 1013.2 1006.2
04 17.07 С 1-1
{1}
20 км н/о +15.6 +12.9 84 +17 +17 1013.4 1006.4
05 17.07 В 1-1
{1}
20 км н/о +15.9 +13.0 83 +17 +17 1013.5 1006.5
06 17.07 штиль 0
{1}
19 км н/о +19.9 +13.1 65 +22 +22 комфорт 1013.6 1006.7 +15.2 +25.7
07 17.07 С 1-2
{2}
19 км н/о +23.1 +13.8 56 +27 +27 душно 1013.6 1006.8
08 17.07 СЗ 1-2
{2}
20 км н/о +25.7 +14.2 49 +28 +28 жарко 1013.6 1006.8
09 17.07 СЗ 1-2
{2}
20 км н/о +26.6 +15.0 49 +29 +29 жарко 1013.1 1006.4
10 17.07 З 1-2
{2}
20 км н/о +28.6 +14.8 43 +31 +31 жарко 1012.9 1006.2
11 17.07 З 2-3
{3}
19 км н/о +31.3 +10.1 27 +31 +31 жарко 1012.4 1005.8
12 17.07 СЗ 3-5
{5}
20 км н/о +32.5 +9.3 24 +32 +32 жарко 1011.9 1005.3
13 17.07 СЗ 2-4
{4}
20 км н/о +32.6 +9.4 24 +32 +32 жарко 1011.4 1004.8
14 17.07 СЗ 3-4
{5}
20 км н/о +32.6 +8.1 22 +31 +31 жарко 1011.2 1004.6
15 17.07 СЗ 2-3
{4}
20 км н/о +33.0 +8.4 22 +32 +32 жарко 1010.8 1004.2
16 17.07 З 6-5
{10}
20 км н/о +31.2 +10.5 28 +31 +31 жарко 1010.5 1003.9
17 17.07 ЮЗ 6-5
{10}
20 км н/о +30.3 +11.3 31 +31 +31 жарко 1010.4 1003.8
18 17.07 ЮЗ 4
{10}
20 км н/о +29.6 +11.6 33 +30 +30 жарко 1010.5 1003.8 +19.9 +33.5
19 17.07 З 4-4
{7}
20 км н/о +28.0 +12.4 38 +29 +29 жарко 1010.8 1004.1
20 17.07 З 2
{6}
20 км н/о +25.7 +14.2 49 +28 +28 жарко 1011.4 1004.7
21 17.07 ЮВ 2-2
{3}
20 км н/о +23.4 +15.4 61 +28 +28 душно 1011.6 1004.8
22 17.07 СВ 2-2
{2}
20 км н/о +20.6 +15.2 71 +24 +24 комфорт 1011.3 1004.4
23 17.07 В 2-2
{4}
20 км н/о +20.0 +14.8 72 +23 +23 комфорт 1011.2 1004.3
00 18.07 СВ 2-2
{2}
20 км н/о +19.8 +14.6 72 +23 +23 комфорт 1010.7 1003.8
01 18.07 штиль 0-1
{2}
20 км н/о +19.3 +14.1 72 +21 +21 комфорт 1010.8 1003.9
02 18.07 Ю 1-1
{1}
20 км н/о +17.5 +13.8 79 +19 +19 1010.7 1003.8
03 18.07 штиль 0-1
{1}
20 км н/о +16.7 +13.4 81 +17 +17 1010.9 1003.9
04 18.07 СВ 2-2
{3}
20 км н/о +15.9 +13.0 83 +16 +16 1011.2 1004.2
05 18.07 штиль 0-1
{2}
20 км н/о +16.8 +13.3 80 +17 +17 1011.6 1004.6
06 18.07 штиль 0
{1}
20 км н/о +21.3 +14.0 63 +24 +24 комфорт 1011.9 1005.0 +15.7 +29.6
07 18.07 СЗ 2-4
{4}
20 км н/о +25.7 +9.5 36 +26 +26 жарко 1012.2 1005.4
08 18.07 СЗ 3-4
{5}
20 км н/о +27.8 +10.0 33 +28 +28 жарко 1012.3 1005.6
09 18.07 СЗ 3-5
{5}
20 км н/о +28.7 +10.8 33 +29 +29 жарко 1012.2 1005.5
10 18.07 СЗ 3-5
{5}
20 км н/о +30.4 +9.8 28 +30 +30 жарко 1012.0 1005.3
11 18.07 СЗ 3-4
{5}
20 км н/о +31.5 +8.5 24 +30 +30 жарко 1011.7 1005.1
12 18.07 СЗ 4-6
{6}
20 км н/о +31.9 +8.2 23 +31 +31 жарко 1011.4 1004.8
13 18.07 СЗ 3-5
{6}
20 км н/о +32.7 +8.9 23 +32 +32 жарко 1011.3 1004.7
14 18.07 СЗ 2-4
{5}
20 км н/о +33.3 +8.0 21 +32 +32 жарко 1011.0 1004.4
15 18.07 СЗ 3-5
{5}
20 км н/о +33.4 +7.4 20 +32 +32 жарко 1010.7 1004.1
16 18.07 З 3-6
{6}
20 км н/о +32.2 +11.9 29 +32 +32 жарко 1010.5 1003.9
17 18.07 З 3-5
{7}
20 км н/о +31.2 +11.1 29 +31 +31 жарко 1010.7 1004.1
18 18.07 ЮЗ 2-4
{5}
20 км н/о +30.5 +11.0 30 +31 +31 жарко 1011.0 1004.4 +21.5 +34.0
19 18.07 З 1-2
{4}
20 км н/о +28.9 +11.0 33 +29 +29 жарко 1011.5 1004.8
20 18.07 З 1-2
{3}
20 км н/о +27.3 +9.2 32 +27 +27 жарко 1012.0 1005.3
21 18.07 штиль 0-1
{2}
20 км н/о +24.7 +10.2 40 +26 +26 жарко 1012.7 1005.9
22 18.07 Ю 1-1
{1}
20 км н/о +23.6 +10.3 43 +25 +25 комфорт 1013.0 1006.2
23 18.07 З 1-2
{2}
20 км н/о +23.1 +10.5 45 +25 +25 комфорт 1013.3 1006.5
00 19.07 Ю 1-1
{1}
20 км н/о +21.5 +11.5 53 +24 +24 комфорт 1013.6 1006.7
01 19.07 С 2-3
{3}
20 км н/о +23.4 +11.8 48 +26 +26 жарко 1013.7 1006.9
02 19.07 СВ 1-2
{2}
20 км н/о +20.3 +11.5 57 +23 +23 комфорт 1014.2 1007.3
03 19.07 В 1-1
{2}
20 км н/о +17.9 +10.8 63 +20 +20 1014.5 1007.5
04 19.07 В 1-1
{1}
20 км н/о +16.6 +11.1 70 +18 +18 1014.9 1007.9
05 19.07 ЮЗ 1-1
{1}
20 км н/о +17.7 +12.2 70 +19 +19 1015.2 1008.2
06 19.07 В 1
{2}
45 км н/о +22.0 +13.4 58 +25 +25 комфорт 1015.6 1008.7 +16.5 +30.5
07 19.07 С 1-1
{1}
30 км н/о +25.1 +13.3 48 +27 +27 жарко 1015.7 1008.9
08 19.07 Ю 1-1
{2}
45 км н/о +26.0 +13.8 47 +28 +28 жарко 1015.8 1009.0
09 19.07 С 1-2
{2}
55 км н/о +27.8 +14.8 45 +30 +30 жарко 1015.9 1009.2
10 19.07 СЗ 2-3
{3}
60 км н/о +29.1 +13.7 39 +31 +31 жарко 1015.7 1009.0
11 19.07 СЗ 2-3
{4}
60 км н/о +30.4 +10.4 29 +30 +30 жарко 1015.4 1008.7
12 19.07 ЮЗ 2-4
{4}
60 км н/о +30.7 +15.2 39 +33 +33 душно 1015.2 1008.5
13 19.07 ЮЗ 3-4
{4}
50 км н/о +30.1 +13.0 35 +31 +31 жарко 1015.1 1008.4
14 19.07 ЮЗ 3-4
{4}
40 км н/о +30.0 +13.7 37 +32 +32 жарко 1015.0 1008.3
15 19.07 ЮЗ 3-4
{4}
45 км н/о +29.8 +13.1 36 +31 +31 жарко 1014.9 1008.2
17 19.07 ЮЗ 2-4
{4}
45 км н/о +27.9 +11.9 37 +29 +29 жарко 1014.7 1008.0
18 19.07 ЮЗ 2-2
{3}
50 км н/о +27.3 +12.5 40 +29 +29 жарко 1014.9 1008.2 +22.0 +31.7
19 19.07 Ю 1-2
{3}
50 км н/о +25.6 +13.1 46 +28 +28 жарко 1015.4 1008.6
20 19.07 Ю 1-1
{2}
45 км н/о +23.4 +13.8 55 +27 +27 душно 1015.9 1009.1
21 19.07 штиль 0
{1}
35 км н/о +20.9 +13.3 62 +23 +23 комфорт 1016.3 1009.4
22 19.07 СВ 1-1
{1}
24 км н/о +19.2 +14.9 76 +22 +22 комфорт 1016.5 1009.6
23 19.07 штиль 0-1
{1}
19 км н/о +18.4 +15.3 82 +19 +19 1016.6 1009.7
00 20.07 СВ 1-1
{1}
18 км н/о +18.0 +15.3 84 +20 +20 1016.5 1009.5
01 20.07 СВ 1-1
{1}
21 км н/о +17.5 +14.6 83 +19 +19 1016.3 1009.3
02 20.07 СВ 1-1
{1}
17 км н/о +16.4 +13.5 83 +18 +18 1016.5 1009.5
03 20.07 СЗ 1-1
{1}
22 км н/о +16.4 +13.3 82 +18 +18 1016.6 1009.6
05 20.07 СВ 1-1
{1}
22 км н/о +16.7 +13.8 83 +18 +18 1017.2 1010.2
06 20.07 В 2
{4}
35 км н/о +21.2 +15.7 71 +24 +24 комфорт 1017.0 1010.1 +15.6 +27.3
07 20.07 З 1-1
{2}
35 км н/о +24.8 +17.0 62 +29 +29 душно 1017.4 1010.6
08 20.07 СЗ 1-1
{2}
35 км н/о +26.7 +17.2 56 +31 +31 душно 1017.9 1011.1
09 20.07 СЗ 2-4
{4}
19 км н/о +27.7 +16.9 52 +32 +32 очень
душно
1018.7 1012.0
10 20.07 СЗ 2-3
{3}
19 км н/о +28.6 +18.4 54 +33 +33 очень
душно
1018.5 1011.8
11 20.07 Ю 2 50 км н/о +29.9 +14.8 40 +32 +32 жарко 1017.7 1011.0
12 20.07 Ю 2-5
{5}
50 км н/о +31.1 +17.0 43 +35 +35 очень
душно
1017.6 1010.9
13 20.07 Ю 2-4
{4}
30 км н/о +30.6 +15.5 40 +33 +33 душно 1017.4 1010.7
14 20.07 ЮЗ 3-5
{5}
30 км н/о +30.2 +15.5 41 +33 +33 душно 1017.5 1010.8
15 20.07 Ю 3-4
{5}
35 км н/о +29.1 +18.5 53 +34 +34 очень
душно
1017.6 1010.9
16 20.07 Ю 2-3
{4}
35 км н/о +28.0 +16.9 51 +32 +32 душно 1017.8 1011.1
17 20.07 Ю 2-3
{4}
35 км н/о +28.2 +16.8 50 +32 +32 душно 1017.9 1011.2
18 20.07 Ю 2
{5}
29 км н/о +27.2 +16.5 52 +31 +31 душно 1018.1 1011.3 +21.2 +31.3
19 20.07 ЮЗ 1-2
{3}
35 км н/о +25.5 +17.4 61 +30 +30 душно 1018.6 1011.8
20 20.07 Ю 1-1
{2}
35 км н/о +24.1 +17.1 65 +28 +28 душно 1019.5 1012.7
21 20.07 Ю 1-1
{1}
30 км н/о +21.7 +17.1 75 +26 +26 душно 1019.8 1012.9
22 20.07 В 1-1
{1}
26 км н/о +20.3 +16.5 79 +25 +25 комфорт 1020.1 1013.2
23 20.07 З 1-1
{2}
28 км н/о +19.8 +16.6 82 +24 +24 комфорт 1020.3 1013.4
00 21.07 В 1-1
{1}
27 км н/о +18.6 +15.7 83 +21 +21 комфорт 1020.6 1013.6
01 21.07 СВ 1-1
{1}
23 км н/о +18.7 +15.9 84 +21 +21 комфорт 1020.6 1013.6
02 21.07 С 1-1
{1}
28 км н/о +18.2 +15.4 84 +20 +20 1020.6 1013.6
03 21.07 С 1-1
{1}
25 км н/о +17.7 +15.1 85 +19 +19 1020.5 1013.5
04 21.07 С 2-2
{2}
30 км 10/10
[]
+18.6 +15.5 82 +20 +20 1020.6 1013.6
05 21.07 З 1 17 км 10/10 1500 м
[]
+20.0 +17.2 84 +24 +24 комфорт 1020.4 1013.5 1
06 21.07 В 1
{2}
16 км н/о +20.8 +18.4 86 +26 +26 душно 1020.8 1013.9 +17.5 +27.2 1
07 21.07 ЮВ 1-1
{1}
30 км н/о +23.3 +16.8 67 +28 +28 душно 1020.7 1013.8
08 21.07 СЗ 1-2
{2}
40 км н/о +25.5 +17.2 60 +29 +29 душно 1020.9 1014.1
09 21.07 СЗ 1-2
{2}
45 км н/о +27.1 +14.5 46 +30 +30 душно 1020.8 1014.0
10 21.07 СЗ 1-2
{2}
55 км н/о +29.7 +13.0 36 +31 +31 жарко 1020.4 1013.7
11 21.07 СЗ 1-2
{3}
40 км н/о +30.4 +15.3 40 +33 +33 душно 1020.3 1013.6
12 21.07 СЗ 2-3
{4}
45 км н/о +32.1 +15.6 37 +35 +35 очень
душно
1019.9 1013.2
13 21.07 СЗ 2-3
{3}
40 км н/о +32.8 +16.6 38 +36 +36 очень
душно
1019.4 1012.8
14 21.07 ЮЗ 2-3
{3}
19 км н/о +33.8 +16.2 35 +36 +36 очень
душно
1019.2 1012.6
15 21.07 ЮЗ 3-5
{5}
45 км н/о +31.8 +18.0 44 +36 +36 очень
душно
1019.0 1012.3
16 21.07 ЮЗ 3-4
{5}
40 км н/о +31.0 +15.8 40 +34 +34 душно 1019.0 1012.3
17 21.07 Ю 2-3
{4}
45 км н/о +30.5 +15.0 39 +33 +33 душно 1019.1 1012.4
18 21.07 ЮЗ 2-3
{3}
45 км н/о +28.9 +15.4 44 +32 +32 душно 1019.4 1012.7 +20.7 +33.9
19 21.07 ЮЗ 2-2
{3}
50 км н/о +26.9 +17.1 55 +31 +31 душно 1020.1 1013.3
20 21.07 ЮЗ 1-1
{2}
40 км н/о +25.2 +18.2 65 +30 +30 душно 1020.7 1013.9
21 21.07 штиль 0-1
{1}
35 км н/о +23.8 +16.8 65 +27 +27 жарко 1021.0 1014.2
22 21.07 ЮЗ 1-1
{1}
28 км н/о +22.7 +17.2 71 +28 +28 душно 1021.4 1014.5
23 21.07 штиль 0-1
{1}
30 км н/о +21.6 +17.0 75 +26 +26 душно 1021.7 1014.8
00 22.07 СВ 1-1
{1}
40 км н/о +20.5 +16.3 77 +25 +25 комфорт 1021.5 1014.6
01 22.07 СВ 1-1
{1}
30 км н/о +19.9 +15.5 76 +24 +24 комфорт 1021.4 1014.5
02 22.07 СВ 1-1
{1}
29 км н/о +19.4 +15.5 78 +23 +23 комфорт 1021.3 1014.3
03 22.07 СВ 1-1
{1}
29 км н/о +19.1 +15.6 80 +22 +22 комфорт 1020.9 1013.9
04 22.07 СВ 1-1
{1}
29 км н/о +19.0 +15.5 80 +22 +22 комфорт 1020.9 1013.9
05 22.07 СВ 1-1
{2}
28 км н/о +19.8 +16.2 80 +24 +24 комфорт 1021.0 1014.1
06 22.07 СВ 1
{3}
35 км н/о +22.3 +16.8 71 +27 +27 душно 1021.4 1014.5 +18.9 +28.8
07 22.07 штиль 0-1
{1}
35 км н/о +25.7 +17.1 59 +30 +30 душно 1021.3 1014.5
08 22.07 ЮЗ 1-1
{1}
30 км н/о +27.8 +17.9 55 +32 +32 душно 1021.3 1014.5
09 22.07 ЮЗ 1-2
{2}
29 км н/о +29.9 +18.0 49 +34 +34 очень
душно
1021.2 1014.5
10 22.07 ЮЗ 2-3
{3}
19 км н/о +31.1 +17.8 45 +35 +35 очень
душно
1021.2 1014.5
11 22.07 ЮЗ 1-2
{3}
30 км н/о +32.1 +18.3 44 +37 +37 очень
душно
1020.9 1014.2
12 22.07 ЮЗ 2-4
{4}
19 км н/о +32.0 +20.3 50 +39 +39 очень
душно
1020.6 1013.9
13 22.07 ЮЗ 3-4
{5}
28 км н/о +31.7 +20.0 50 +38 +38 очень
душно
1020.3 1013.6
14 22.07 ЮЗ 3-4
{4}
27 км н/о +31.1 +20.4 53 +38 +38 очень
душно
1020.1 1013.4
15 22.07 ЮЗ 3-4
{5}
19 км н/о +30.4 +20.6 56 +37 +37 очень
душно
1020.0 1013.3
16 22.07 Ю 2-3
{4}
27 км н/о +30.2 +19.9 54 +36 +36 очень
душно
1019.7 1013.0
17 22.07 Ю 2-3
{4}
30 км н/о +29.3 +20.2 58 +36 +36 очень
душно
1019.7 1013.0
18 22.07 Ю 2
{5}
35 км н/о +29.0 +20.2 59 +35 +35 очень
душно
1019.6 1012.9 +22.4 +32.6
20 22.07 Ю 1-1
{2}
27 км н/о +26.4 +20.7 71 +33 +33 очень
душно
1020.3 1013.5
21 22.07 ЮЗ 1-1
{1}
24 км н/о +25.1 +20.4 75 +31 +31 очень
душно
1020.3 1013.5
22 22.07 штиль 0-1
{1}
21 км н/о +23.7 +19.8 79 +29 +29 душно 1020.2 1013.4
23 22.07 штиль 0-1
{1}
21 км н/о +22.3 +18.7 80 +28 +28 душно 1020.2 1013.3
00 23.07 штиль 0
{1}
21 км н/о +21.7 +18.3 81 +26 +26 душно 1019.9 1013.0
01 23.07 СВ 1-1
{1}
18 км н/о +21.1 +17.9 82 +25 +25 комфорт 1019.6 1012.7
02 23.07 СВ 1-1
{1}
19 км н/о +21.2 +18.0 82 +25 +25 комфорт 1019.3 1012.4
03 23.07 СВ 1-1
{1}
18 км н/о +20.4 +17.6 84 +25 +25 комфорт 1019.0 1012.1
04 23.07 С 1-1
{1}
18 км н/о +20.3 +17.5 84 +25 +25 комфорт 1019.0 1012.1
05 23.07 штиль 0-1
{1}
19 км н/о +20.6 +17.2 81 +24 +24 комфорт 1019.1 1012.2
06 23.07 В 1
{2}
23 км н/о +24.9 +18.8 69 +30 +30 душно 1018.9 1012.1 +20.2 +29.0
07 23.07 СВ 1-1
{1}
22 км н/о +28.8 +18.9 55 +34 +34 очень
душно
1018.8 1012.1
08 23.07 З 1-1
{1}
30 км н/о +30.5 +18.9 50 +36 +36 очень
душно
1018.9 1012.2
09 23.07 ЮЗ 2-3
{3}
19 км н/о +30.9 +18.6 48 +36 +36 очень
душно
1018.8 1012.1
10 23.07 ЮЗ 2-4
{4}
28 км н/о +31.9 +19.2 47 +37 +37 очень
душно
1018.7 1012.1
11 23.07 ЮЗ 2-4
{4}
19 км н/о +32.7 +18.5 43 +37 +37 очень
душно
1018.5 1011.9
12 23.07 ЮЗ 2-4
{4}
25 км н/о +33.1 +18.1 41 +37 +37 очень
душно
1018.2 1011.6

 

Местоположение метеостанции Салон-де-Прованс (Франция): широта 43.60 долгота 5.10 высота над уровнем моря 60 м.

В архиве по умолчанию представлена погода в Салон-де-Провансе за последнюю неделю. Архивные данные за месяц целиком и за предыдущие месяцы, начиная с января 2011 года, Вы можете получить, выбрав интересующий диапазон дат из раскрывающегося списка и нажав кнопку "Ввод!".


*Определитесь, кто Вы:
робот инопланетянин человек

Внимание! Время в таблицах - всемирное. Для получения местного времени необходимо прибавить поправку, которая равна 1 ч.

Смотрите также архив погоды в соседних городах и на ближайших метеорологических станциях:

Погода в Истре (Франция) (17 км)
Погода в Мариньяне (Франция) (20 км)
Погода на Ла Куроне (Франция) (30 км)
Погода в Авиньон (Франция) (38 км)
Погода в Карпентрасе (Франция) (54 км)
Погода в Ниме (Франция) (57 км)
Погода в Ла-Сьоте (Франция) (61 км)
Погода в Оранже (Франция) (63 км)
Погода в Ним аэропорту (Франция) (64 км)
Погода в Тулоне (Франция) (87 км)

Пояснения к столбцам:

Ветер - указаны скорость ветра в м/с - средняя за 10 мин, порывы в срок и между сроками (в фигурных скобках) и направление, откуда дует ветер: С - северный, СВ - северо-восточный, В - восточный, ЮВ - юго-восточный, Ю - южный, ЮЗ - юго-западный, З - западный, СЗ - северо-западный.
Видимость - горизонтальная дальность видимости в метрах или километрах. При видимости от 1 до 10 км при отсутствии осадков обычно наблюдается дымка, при ухудшении видимости до 1 км и менее - туман. В сухую погоду видимость может ухудшаться дымом, пылью или мглою.
Явления - указаны атмосферные явления, наблюдавшиеся в срок или в последний час перед сроком; фигурными скобками обозначены явления, наблюдавшиеся между сроками (за 1-3 часа до срока); квадратными скобками обозначены град или гололедные отложения с указанием их диаметра в мм.
Облачность - указаны через наклонную черту общая и нижняя облачность в баллах и высота нижней границы облаков в метрах; квадратными скобками обозначены формы облаков: Ci - перистые, Cs - перисто-слоистые, Cc - перисто-кучевые, Ac - высококучевые, As - высокослоистые, Sc - слоисто-кучевые, Ns - слоисто-дождевые, Cu - кучевые, Cb - кучево-дождевые. Подробнее классификацию облаков см. в Атласе облаков (PDF).
T - Температура воздуха - температура, измеренная на высоте 2 м над землей.
Td - Температура точки росы - температура, при понижении до которой содержащийся в воздухе водяной пар достигнет насыщения.
f - Относительная влажность воздуха - влажноcть воздуха, измеренная на высоте 2 м над землей.
Te - Эффективная температура - температура, которую ощущает одетый по сезону человек в тени. Характеристика душности погоды. При расчете учитывается влияние влажности воздуха и скорости ветра на теплоощущения человека.
Tes - Эффективная температура на солнце - температура, которую ощущает человек, с поправкой на солнечный нагрев. Характеристика знойности погоды. Зависит от высоты солнца над горизонтом, облачности и скорости ветра. Ночью, в пасмурную погоду, а также при ветре 12 м/с и более поправка равна нулю.
P - Атмосферное давление - приведенное к уровню моря атмосферное давление.
Po - Атмосферное давление - измеренное на уровне метеостанции атмосферное давление.
Tmin - Минимальная температура - минимум температуры воздуха на высоте 2 м над землей.
Tmax - Максимальная температура - максимум температуры воздуха на высоте 2 м над землей.
R - Количество осадков - Количество выпавших осадков за период времени, мм. При наведении курсора мыши на число - период времени, за который выпало указанное количество осадков.
R24 - Количество осадков - Количество выпавших осадков за 24 часа, мм.
S - Снежный покров - Высота снежного покрова, см. При наведении курсора мыши на число - состояние снежного покрова и степень покрытия местности в баллах.